Location: Hermaringen
(48.5952°N, 10.2585°E)
Time: 10:30:48
(UTC+00:00)

Courier 1B - Pass Details

Date: 16 February 2026
Orbit: 962 x 1208 km, 28.3° (Epoch: 7 March)

Event Time Altitude Azimuth Distance (km) Brightness Sun altitude
Rises 22:34:40 0° 241° (WSW) 4,061 - -51.5°
Reaches altitude 10° 22:39:03 10° 219° (SW) 3,124 - -51.8°
Maximum altitude 22:42:52 14° 189° (S) 2,812 - -52.0°
Drops below altitude 10° 22:46:42 10° 160° (SSE) 3,138 - -52.2°
Sets 22:51:08 0° 137° (SE) 4,092 - -52.5°
